Temp
51 51 51 51 51 50 44 37 28 40 44 32 31 30 32 41 40 43 40 41 39 38 39 38 37 34 36 45 43 36 44 40 35 45 49 51 48 47 48 36 35 38 35 38
51 51 50 50 51 49 36 33 30 39 39 22 28 33 36 39 37 39 39 39 41 43 39 34 39 38 46 48 42 35 41 35 31 40 45 46 44 47 50 46 43 36 33 37
50 50 50 50 50 50 40 33 26 30 37 35 30 30 31 33 41 38 42 41 43 38 35 41 36 40 45 46 46 44 44 37 34 30 36 41 38 43 46 43 34 37 40 45
50 50 50 50 50 50 39 34 28 30 19 26 31 33 33 31 32 39 40 37 38 36 31 33 33 39 41 46 47 47 41 35 38 40 43 45 41 43 42 38 38 34 42 45
50 50 50 50 50 49 35 31 31 31 29 33 31 31 32 31 32 35 33 34 38 37 32 34 31 36 36 37 44 41 43 35 37 33 42 43 41 44 44 44 41 42 45 45
50 50 50 50 50 46 36 38 37 34 30 28 24 28 33 34 35 37 41 39 35 33 36 38 39 40 40 39 40 37 37 35 32 29 38 39 31 39 44 46 47 45 40 45
49 49 49 49 49 46 36 35 37 32 23 28 29 33 35 35 36 33 39 40 36 43 45 44 43 41 41 41 42 43 36 34 30 26 32 23 41 51 49 45 46 47 47 49
49 49 49 48 49 49 37 36 36 32 21 29 31 34 34 35 37 35 37 41 44 42 40 31 31 30 32 36 40 39 40 33 25 23 24 34 42 46 44 43 41 48 46 49
48 48 48 48 48 49 38 36 38 37 30 26 36 31 34 29 28 31 36 43 43 41 32 26 25 21 30 30 34 42 39 36 28 25 23 20 39 46 50 49 34 49 49 48
47 48 48 48 48 48 39 36 39 36 30 32 34 29 30 37 34 29 33 36 35 41 28 26 23 25 36 26 28 28 28 26 26 23 22 31 44 50 51 34 35 49 50 48
48 48 48 48 48 48 42 36 39 37 31 33 38 39 33 34 33 29 33 31 33 30 28 28 27 24 33 31 34 32 29 24 21 25 22 23 49 49 40 44 46 48 48 48
46 47 48 48 48 48 46 38 44 41 35 32 40 41 42 41 40 34 35 33 32 35 30 31 31 28 31 31 27 34 28 33 30 32 32 45 48 47 51 52 49 46 47 48
47 47 48 48 48 48 46 41 42 40 35 35 34 34 43 46 44 44 31 33 38 33 36 32 33 29 34 27 29 31 37 39 37 36 43 43 44 49 53 54 48 48 49 47
47 47 47 47 48 48 48 40 43 40 36 28 30 43 38 45 45 43 44 41 39 39 37 34 32 29 39 32 34 32 36 39 38 38 42 45 47 49 48 50 51 48 45 44
46 47 47 47 47 48 45 42 42 44 37 28 31 39 44 46 43 42 43 40 38 36 34 32 30 35 35 36 36 33 40 35 34 33 41 40 44 48 51 48 47 46 43 39
46 47 47 47 47 48 41 34 43 45 43 34 27 36 39 43 43 41 40 40 39 38 34 32 35 39 36 31 30 41 45 44 43 38 44 44 48 48 50 46 45 43 41 40
46 47 47 47 47 44 36 36 40 46 43 32 29 27 36 41 42 38 37 39 35 35 34 34 33 33 36 31 28 40 43 44 43 43 45 40 42 41 45 46 43 40 37 36
46 46 47 47 47 46 39 43 46 45 35 34 29 25 28 39 32 31 35 33 35 36 32 33 34 33 34 30 36 39 43 45 43 42 43 42 43 42 40 41 42 40 35 32
46 46 47 44 39 34 39 47 46 44 39 31 30 22 22 37 34 36 36 37 31 37 32 30 32 29 30 35 35 34 34 35 37 40 38 38 35 35 37 37 35 34 33 30
46 43 34 30 35 46 45 40 36 36 36 36 29 30 27 36 33 32 32 34 29 28 32 35 31 31 33 33 33 34 34 34 34 32 30 31 30 31 33 34 35 35 33 30
39 33 34 39 46 40 35 30 30 32 30 33 33 33 32 37 32 32 33 30 32 26 28 30 29 28 28 31 30 32 33 33 32 32 31 30 28 28 30 30 30 30 30 28
41 41 43 41 37 33 28 28 30 29 26 29 28 30 35 35 39 32 32 30 31 26 34 26 24 23 27 28 28 28 29 30 31 30 29 28 26 26 27 26 26 25 25 24
44 40 34 32 31 24 21 22 24 21 25 29 27 27 32 34 36 32 32 28 27 34 29 20 21 25 26 26 27 27 29 29 27 26 26 26 24 23 23 22 23 24 23 23
35 31 27 27 24 24 23 27 30 31 32 28 28 27 33 32 30 27 28 29 31 20 22 17 21 24 25 26 26 25 23 25 23 21 22 21 20 18 18 17 19 18 19 19
30 28 21 24 25 27 28 31 30 30 32 32 33 31 31 31 28 31 29 27 20 19 15 19 22 24 25 23 22 21 20 19 18 15 13 13 14 14 13 16 16 16 15 15
28 23 25 27 24 23 26 27 27 30 29 32 32 28 28 24 30 26 21 20 11 15 18 21 22 19 20 18 18 16 13 13 12 13 14 12 10 10 10 12 12 12 12 11
25 19 24 23 23 21 23 26 26 29 29 31 28 26 23 30 20 18 20 10 16 21 22 21 18 16 15 17 16 15 15 13 10 12 13 12 13 14 12 9 11 13 13 12
MSLP
1020.62 1020.57 1020.47 1020.27 1020.15 1020.13 1020.21 1020.57 1020.24 1018.38 1018.03 1018.72 1018.16 1017.28 1016.20 1014.93 1013.47 1013.17 1012.63 1011.53 1010.19 1008.90 1008.55 1007.75 1007.45 1007.66 1007.70 1006.84 1007.05 1007.50 1006.66 1004.73 1002.84 1001.75 1001.29 1000.91 1000.38 1000.73 1001.09 1001.70 1002.66 1002.92 1002.79 1001.73
1020.20 1020.11 1020.08 1019.99 1019.90 1019.98 1020.58 1020.48 1019.85 1018.34 1018.31 1018.31 1017.72 1016.90 1015.88 1014.96 1013.88 1013.04 1012.22 1011.38 1010.50 1009.43 1009.01 1008.99 1008.32 1008.32 1007.93 1007.48 1007.91 1008.59 1008.39 1006.17 1004.13 1002.25 1002.31 1001.52 1001.54 1001.79 1001.36 1001.50 1002.23 1002.79 1002.82 1002.38
1019.65 1019.63 1019.64 1019.68 1019.67 1019.70 1020.40 1020.66 1020.14 1019.02 1018.55 1018.40 1018.07 1016.92 1016.05 1014.96 1013.90 1012.92 1012.14 1011.13 1010.21 1010.17 1010.21 1010.03 1009.74 1008.69 1008.19 1007.93 1008.01 1008.19 1008.66 1007.70 1005.15 1004.22 1003.70 1003.54 1002.93 1002.57 1002.85 1002.86 1003.15 1003.10 1002.67 1002.09
1019.07 1019.12 1019.23 1019.31 1019.39 1019.46 1020.26 1020.45 1020.12 1019.33 1018.92 1018.46 1017.87 1017.31 1016.48 1015.27 1014.02 1013.16 1012.43 1011.31 1010.91 1010.65 1010.11 1009.82 1009.57 1009.02 1008.40 1007.98 1007.66 1007.92 1008.32 1007.34 1006.18 1005.26 1004.37 1003.82 1003.34 1003.11 1003.48 1003.72 1003.87 1003.40 1002.72 1002.13
1018.52 1018.61 1018.73 1018.89 1019.03 1019.26 1020.20 1020.24 1019.85 1019.49 1019.14 1018.37 1018.02 1017.30 1016.28 1015.41 1014.98 1014.13 1013.06 1012.20 1011.49 1011.18 1011.11 1010.76 1010.49 1009.94 1009.27 1008.92 1008.17 1007.92 1007.74 1007.16 1006.91 1005.97 1004.84 1004.24 1003.84 1003.36 1002.94 1003.07 1003.52 1003.46 1002.78 1002.40
1017.88 1018.03 1018.21 1018.40 1018.61 1019.05 1019.54 1019.67 1019.65 1019.72 1018.96 1018.62 1018.31 1017.30 1016.34 1015.59 1015.21 1013.82 1013.18 1012.71 1011.94 1011.44 1011.20 1010.99 1010.77 1010.44 1009.89 1009.61 1008.65 1008.40 1008.05 1007.87 1007.54 1006.88 1005.75 1004.67 1003.94 1003.41 1002.97 1002.72 1002.68 1002.93 1002.88 1002.96
1017.29 1017.49 1017.69 1017.86 1018.07 1018.50 1019.09 1019.32 1019.43 1019.24 1018.82 1018.43 1017.85 1017.06 1016.36 1015.62 1015.02 1014.38 1013.29 1012.73 1012.11 1011.31 1011.02 1010.60 1010.05 1009.84 1009.54 1009.07 1008.74 1008.46 1008.79 1008.88 1008.63 1007.98 1006.63 1005.34 1003.48 1002.50 1002.41 1002.72 1002.79 1002.44 1002.90 1003.05
1016.69 1016.89 1017.07 1017.24 1017.34 1017.71 1018.63 1018.84 1019.21 1019.20 1018.67 1018.10 1017.57 1016.85 1016.35 1015.60 1014.85 1014.19 1013.33 1012.61 1011.99 1011.40 1011.34 1010.97 1010.49 1009.83 1009.37 1008.68 1008.50 1008.55 1008.70 1009.54 1009.52 1009.15 1007.96 1006.10 1003.87 1003.19 1003.14 1002.84 1003.65 1003.27 1003.34 1003.56
1016.12 1016.22 1016.51 1016.73 1016.80 1016.99 1017.96 1018.34 1018.56 1018.92 1018.39 1017.58 1017.13 1016.85 1016.36 1015.90 1015.35 1014.49 1013.62 1012.83 1012.01 1011.92 1012.13 1012.08 1011.83 1011.16 1009.92 1009.06 1008.16 1007.80 1008.65 1009.05 1009.65 1009.35 1008.61 1006.69 1004.52 1003.31 1002.64 1002.58 1003.47 1003.55 1003.52 1003.73
1015.52 1015.68 1015.95 1016.16 1016.37 1016.56 1017.36 1017.80 1017.92 1018.56 1018.11 1017.24 1016.92 1016.67 1016.22 1015.82 1015.72 1015.44 1014.67 1013.93 1012.89 1012.48 1013.02 1012.89 1012.32 1011.48 1010.34 1009.90 1008.93 1008.44 1008.89 1009.46 1009.60 1009.52 1008.62 1006.70 1004.55 1003.43 1002.92 1003.03 1003.83 1003.24 1003.50 1003.73
1014.81 1015.06 1015.34 1015.61 1015.87 1016.09 1016.75 1017.21 1017.37 1018.01 1017.81 1016.92 1016.50 1016.11 1016.03 1015.90 1015.90 1015.74 1015.26 1014.59 1014.02 1013.95 1013.73 1013.34 1012.44 1011.62 1010.48 1009.89 1009.14 1009.16 1008.89 1009.17 1009.24 1009.21 1008.39 1006.90 1004.34 1003.47 1003.77 1003.77 1003.34 1003.54 1003.90 1004.20
1014.16 1014.47 1014.77 1015.08 1015.38 1015.63 1016.09 1016.73 1016.65 1017.25 1017.62 1016.84 1015.96 1015.69 1015.40 1015.43 1015.32 1015.61 1015.40 1015.48 1015.37 1015.22 1014.94 1014.18 1013.50 1011.85 1010.80 1010.38 1009.26 1008.73 1008.34 1007.43 1007.59 1007.58 1006.69 1005.29 1004.54 1004.09 1003.65 1003.38 1003.65 1004.20 1004.54 1005.02
1013.50 1013.82 1014.12 1014.48 1014.81 1015.07 1015.49 1015.92 1016.18 1016.86 1016.85 1016.37 1015.93 1014.67 1013.91 1014.01 1014.17 1014.59 1015.33 1015.21 1015.17 1015.49 1015.62 1015.24 1013.83 1011.95 1011.05 1010.65 1009.88 1009.20 1007.97 1007.35 1006.92 1006.80 1005.75 1005.65 1005.07 1004.21 1003.93 1004.32 1004.29 1004.96 1005.38 1005.78
1012.74 1013.06 1013.40 1013.82 1014.17 1014.45 1014.82 1015.41 1015.60 1016.18 1016.22 1015.99 1014.42 1013.26 1013.19 1012.19 1012.71 1013.30 1013.59 1013.89 1014.53 1014.76 1015.12 1014.85 1014.15 1013.13 1011.35 1010.65 1010.09 1009.29 1008.31 1007.75 1007.34 1006.69 1005.96 1005.54 1005.24 1004.84 1004.91 1004.96 1005.33 1006.06 1006.75 1007.17
1011.86 1012.20 1012.61 1013.05 1013.44 1013.86 1014.29 1014.75 1014.85 1015.15 1015.50 1015.19 1014.14 1013.16 1011.39 1011.26 1011.83 1012.42 1012.83 1013.42 1013.91 1014.36 1014.55 1014.48 1013.95 1012.93 1011.91 1010.66 1009.86 1008.60 1008.42 1008.07 1008.02 1007.59 1007.19 1006.85 1006.32 1005.77 1005.83 1005.59 1006.47 1006.83 1007.33 1008.17
1010.88 1011.25 1011.68 1012.18 1012.66 1013.24 1014.10 1014.08 1013.70 1013.92 1014.58 1015.08 1014.40 1012.82 1011.65 1011.00 1011.30 1011.79 1012.33 1012.74 1013.18 1013.57 1013.77 1013.94 1013.31 1012.59 1012.26 1011.26 1010.24 1009.11 1008.42 1008.34 1008.38 1008.00 1007.45 1007.06 1007.12 1007.02 1006.97 1007.10 1007.66 1008.23 1008.67 1009.19
1009.88 1010.38 1010.82 1011.34 1011.92 1012.68 1013.00 1012.81 1012.30 1012.30 1013.71 1014.65 1014.48 1013.26 1011.52 1010.88 1010.96 1011.45 1011.75 1012.09 1012.68 1013.09 1013.47 1013.46 1013.15 1012.76 1012.32 1011.91 1010.83 1009.74 1008.86 1008.68 1008.69 1008.77 1008.09 1008.43 1008.51 1008.78 1008.54 1008.17 1008.76 1009.52 1010.10 1010.74
1008.98 1009.62 1010.24 1010.78 1011.39 1012.32 1012.60 1012.23 1011.87 1012.47 1013.63 1013.96 1013.67 1012.78 1012.03 1010.93 1011.23 1011.69 1011.69 1012.07 1012.42 1012.86 1012.92 1012.96 1012.87 1012.62 1012.26 1011.91 1011.13 1010.70 1010.03 1009.81 1009.73 1009.81 1010.00 1010.32 1010.35 1010.09 1009.94 1009.95 1009.87 1010.18 1011.10 1011.91
1008.08 1008.93 1010.00 1010.75 1011.42 1011.74 1011.43 1011.63 1012.17 1012.47 1013.08 1013.07 1012.93 1012.49 1011.91 1011.18 1011.37 1011.53 1011.80 1011.79 1012.44 1012.59 1012.61 1012.69 1012.76 1012.45 1012.36 1011.83 1011.96 1012.02 1012.06 1011.85 1011.42 1011.11 1011.19 1011.14 1011.30 1011.46 1011.25 1011.14 1011.29 1011.36 1011.95 1012.49
1007.33 1008.82 1009.84 1010.36 1010.68 1010.72 1011.16 1011.88 1012.13 1012.51 1012.32 1012.18 1012.03 1011.54 1011.27 1011.07 1011.30 1011.33 1011.33 1011.48 1011.87 1011.91 1011.73 1012.03 1012.27 1012.58 1013.03 1013.23 1013.40 1013.31 1013.26 1013.12 1012.87 1012.39 1012.53 1012.73 1012.98 1013.05 1012.79 1012.64 1012.72 1012.75 1012.93 1013.33
1007.24 1008.40 1009.20 1009.75 1009.99 1010.72 1011.36 1011.47 1011.66 1011.82 1011.87 1011.39 1010.73 1010.49 1010.37 1010.47 1010.62 1010.81 1010.77 1010.83 1011.05 1011.19 1010.98 1011.50 1012.00 1012.77 1014.05 1014.60 1014.75 1014.77 1014.61 1014.40 1014.37 1014.44 1014.64 1014.77 1014.84 1014.69 1014.39 1014.08 1013.97 1014.02 1014.18 1014.44
1006.39 1007.01 1008.49 1009.50 1010.18 1010.61 1011.06 1011.01 1011.04 1011.06 1010.64 1010.18 1009.99 1009.59 1009.58 1009.96 1010.01 1009.99 1010.18 1010.23 1010.46 1010.21 1010.42 1011.56 1012.71 1014.70 1015.35 1015.62 1015.88 1016.00 1015.97 1015.74 1015.58 1015.62 1015.70 1015.76 1015.89 1015.98 1015.62 1015.45 1015.42 1015.53 1015.56 1015.65
1006.17 1007.47 1008.64 1009.20 1010.17 1010.43 1010.51 1010.14 1010.33 1010.24 1009.58 1009.29 1009.12 1009.29 1009.33 1009.76 1009.78 1009.97 1009.88 1009.95 1009.86 1009.92 1010.73 1012.96 1014.80 1015.81 1016.42 1016.77 1016.92 1016.96 1016.90 1016.81 1016.91 1017.08 1017.16 1017.12 1017.20 1017.22 1016.99 1016.86 1016.78 1016.68 1016.66 1016.70
1006.43 1007.82 1009.00 1009.55 1010.27 1010.11 1009.93 1009.78 1009.72 1009.85 1009.57 1009.26 1009.12 1009.37 1009.53 1009.78 1010.04 1010.07 1010.28 1010.20 1010.28 1011.27 1012.82 1014.77 1016.07 1016.77 1017.25 1017.61 1017.88 1017.89 1017.92 1017.87 1018.05 1018.22 1018.19 1018.25 1018.27 1018.30 1018.24 1018.12 1017.93 1017.76 1017.83 1017.97
1007.68 1008.46 1009.69 1010.24 1010.53 1010.58 1010.45 1010.29 1010.30 1010.36 1010.01 1009.59 1009.31 1009.68 1009.87 1010.33 1010.59 1010.80 1011.02 1011.36 1012.46 1013.88 1015.22 1016.45 1017.38 1017.89 1018.16 1018.47 1018.65 1018.80 1018.90 1019.03 1019.17 1019.20 1019.38 1019.45 1019.44 1019.45 1019.42 1019.27 1019.09 1019.00 1019.06 1019.21
1009.27 1010.53 1010.94 1011.18 1011.40 1011.68 1011.44 1011.29 1011.22 1011.04 1010.58 1010.00 1009.73 1010.16 1010.76 1011.10 1011.39 1012.08 1013.12 1013.71 1014.93 1016.16 1017.07 1017.86 1018.49 1018.98 1019.18 1019.43 1019.62 1019.75 1019.81 1019.92 1020.04 1020.17 1020.32 1020.42 1020.49 1020.60 1020.71 1020.49 1020.37 1020.33 1020.35 1020.51
1011.00 1012.35 1012.54 1012.56 1012.81 1013.11 1012.93 1012.66 1012.26 1011.70 1011.26 1010.90 1011.09 1011.46 1012.11 1012.20 1013.49 1015.01 1015.68 1016.53 1017.06 1017.60 1018.35 1018.99 1019.49 1019.89 1020.05 1020.23 1020.31 1020.33 1020.39 1020.56 1020.71 1020.89 1021.08 1021.27 1021.32 1021.28 1021.38 1021.47 1021.56 1021.45 1021.53 1021.63
Wind_Speed
10 11 12 11 12 11 3 2 3 4 3 1 3 3 5 7 11 12 13 9 13 3 6 8 4 4 3 5 8 10 8 7 4 5 4 4 4 4 6 5 2 3 5 6
13 12 11 11 11 6 2 3 3 4 3 2 4 5 7 6 13 14 6 9 17 8 6 5 8 3 8 5 4 7 9 6 5 4 3 7 6 6 5 4 4 5 4 4
12 10 9 10 10 5 3 2 3 4 1 2 4 4 5 6 6 12 7 10 12 1 2 2 6 5 3 6 6 13 6 6 3 2 2 1 3 7 9 5 4 1 12 6
10 9 9 9 9 4 4 2 3 4 3 3 2 4 5 11 10 5 7 8 10 10 4 4 3 6 6 10 8 4 6 3 5 6 2 3 3 3 5 3 2 1 3 1
10 10 10 9 9 7 3 2 2 3 3 6 6 6 4 11 15 4 11 8 9 5 4 3 5 6 5 4 5 6 4 3 2 2 6 7 2 4 3 3 4 11 9 0
11 11 12 11 9 8 2 1 3 1 3 2 2 3 4 15 11 10 11 8 5 5 2 1 6 6 6 8 3 3 6 4 4 1 9 4 3 1 5 5 9 13 3 2
12 13 12 12 13 11 3 3 1 2 3 2 2 9 13 11 12 8 11 9 4 4 4 5 4 5 6 6 7 3 2 3 3 4 6 1 3 10 2 12 9 11 10 7
14 12 12 12 14 14 3 3 2 2 3 2 5 8 9 10 8 4 5 7 8 1 4 4 5 4 3 6 8 7 6 2 0 1 1 6 5 6 4 3 5 5 9 7
14 13 12 11 11 13 4 3 3 2 2 5 4 4 4 4 5 6 4 9 5 1 3 3 1 3 3 4 5 12 6 4 4 2 1 3 2 5 6 4 3 2 7 6
14 12 12 12 11 12 5 3 6 2 4 5 3 4 3 3 3 4 5 12 8 4 3 1 2 3 1 4 4 1 4 1 7 2 1 7 6 6 6 3 4 1 5 7
15 14 13 13 13 12 5 3 6 5 3 6 6 6 4 5 2 1 5 6 5 4 2 2 3 3 2 4 2 2 7 6 4 3 2 7 4 2 1 3 3 4 5 5
14 15 15 14 14 13 8 4 5 4 3 5 2 7 10 7 7 3 2 3 2 1 3 4 4 4 2 3 4 2 4 6 6 7 7 4 5 4 2 4 2 5 6 4
16 17 16 16 16 16 12 3 4 3 4 7 8 10 14 14 15 8 3 2 3 3 3 2 4 4 1 2 3 5 6 4 1 4 3 3 4 5 5 3 8 6 7 8
18 19 18 18 18 17 14 5 5 5 1 3 7 6 5 9 10 9 11 7 3 4 3 2 3 3 4 2 4 4 4 3 3 3 3 1 4 4 3 10 10 11 11 10
21 20 20 20 19 17 10 5 5 8 5 3 4 7 8 10 9 11 9 6 5 3 3 2 3 3 4 3 3 2 4 5 2 1 7 3 3 10 9 11 7 7 9 10
20 20 21 20 18 16 3 4 7 9 8 4 3 4 5 2 7 9 6 7 4 3 3 3 2 4 2 3 3 2 4 5 3 4 4 9 13 14 11 7 7 7 9 8
21 20 19 18 17 9 4 3 2 15 8 3 3 5 4 4 4 1 2 4 3 4 3 3 2 2 1 2 3 8 5 10 13 15 6 10 15 8 12 12 10 12 11 9
20 18 15 15 16 9 4 3 4 9 5 3 2 5 4 1 2 1 1 3 2 1 4 1 2 2 3 4 1 9 9 9 11 11 10 9 7 11 13 11 10 6 6 5
22 19 15 4 2 3 2 10 13 2 2 3 2 3 4 2 2 1 1 3 3 2 4 4 3 2 4 3 7 10 11 9 8 8 11 12 13 12 12 10 11 8 6 5
22 9 3 3 4 11 11 4 4 3 2 3 4 3 2 3 3 3 2 3 4 3 4 4 6 2 9 10 10 9 11 11 11 4 9 10 10 10 10 10 8 7 5 4
3 4 3 2 14 3 2 3 4 4 3 4 5 7 4 3 3 4 3 3 5 4 5 8 5 2 4 8 10 10 11 11 11 9 8 9 8 8 8 8 8 6 6 5
8 9 6 3 3 2 3 4 4 5 6 4 4 4 4 3 3 3 3 3 3 4 7 4 3 3 7 7 8 9 8 9 9 10 9 9 9 8 8 7 7 6 5 5
6 4 3 4 1 3 6 6 3 3 3 3 2 1 4 2 2 1 2 2 4 4 1 3 3 5 5 6 6 7 8 6 7 7 7 7 8 9 9 6 5 4 6 6
4 4 6 4 4 4 2 1 2 1 2 3 3 2 2 1 2 1 1 3 1 3 3 2 2 5 4 4 5 5 6 7 7 6 7 8 8 7 7 6 5 5 6 6
4 4 3 2 2 2 1 1 2 3 3 2 2 3 3 1 2 2 1 1 3 3 2 2 3 4 4 4 3 4 5 5 5 4 5 5 6 5 6 7 6 7 7 7
4 7 3 2 3 3 3 4 2 3 4 2 1 2 3 3 2 3 3 2 1 1 2 2 3 3 3 3 3 2 2 3 3 3 4 4 6 5 4 7 8 8 8 8
5 3 3 3 4 4 3 3 4 3 2 2 2 2 1 2 4 3 3 1 1 4 3 2 2 2 2 3 3 3 3 3 3 3 3 4 4 5 7 8 6 8 8 8
Wind_Direction
278 287 293 297 300 305 30 232 278 256 342 260 224 237 223 286 287 308 301 278 284 280 348 327 35 39 311 80 68 5 334 300 222 207 216 230 184 205 158 153 171 154 154 267
277 282 286 292 299 292 113 263 265 315 120 231 264 277 292 285 303 299 282 292 303 329 13 344 7 47 341 357 50 90 317 342 272 173 338 18 31 17 16 126 124 178 148 250
265 276 286 284 289 272 116 285 304 309 21 17 293 318 276 282 289 287 292 280 269 3 9 308 306 339 277 293 136 143 291 260 3 37 190 212 359 33 35 51 64 274 218 224
258 268 276 284 290 251 109 226 246 229 277 314 287 299 295 308 306 329 317 339 1 346 322 313 334 332 344 342 9 197 151 274 333 296 353 210 109 14 3 123 234 92 302 104
249 258 265 269 275 162 115 255 253 344 287 303 19 339 300 338 357 294 326 299 323 341 335 359 336 359 23 280 327 353 301 272 328 282 351 38 308 291 271 245 132 289 261 281
254 259 258 256 242 165 158 197 293 198 246 320 27 264 318 316 319 296 335 340 326 339 300 243 244 229 243 241 263 344 341 346 359 321 336 302 320 5 216 222 172 194 274 25
252 252 256 255 236 188 153 197 248 252 267 200 242 295 296 319 328 283 293 317 290 270 259 270 264 248 256 268 260 179 310 341 10 286 340 254 274 308 51 97 53 86 93 75
251 251 252 269 222 211 150 179 152 236 260 214 283 294 330 319 311 281 279 334 292 176 12 356 334 327 335 243 217 233 168 141 318 150 280 292 323 20 15 324 53 84 96 79
256 245 248 258 241 221 134 192 156 229 269 228 269 320 289 304 332 330 308 329 290 339 77 41 74 289 267 298 294 201 185 143 130 70 160 240 220 316 344 308 112 177 112 92
249 240 242 249 247 233 149 213 168 164 263 258 252 249 258 318 296 273 310 330 337 23 7 193 195 237 226 286 265 195 168 69 197 175 233 286 271 309 345 79 223 160 108 94
240 241 247 244 242 233 173 216 178 174 240 265 240 252 255 290 256 286 312 354 1 346 338 256 276 215 276 286 296 292 190 157 170 134 135 256 280 354 143 244 314 85 109 126
237 242 243 238 240 240 196 215 182 167 204 248 266 252 246 232 239 214 300 242 256 349 315 8 322 295 44 316 289 330 224 179 170 170 204 266 359 277 131 335 237 127 104 83
243 244 240 239 238 234 216 196 159 186 239 267 253 257 246 227 225 200 201 260 145 163 178 326 287 291 157 284 285 306 317 332 261 130 205 72 341 11 56 308 102 100 87 82
244 242 238 238 238 236 226 211 189 196 133 262 273 232 229 227 210 193 199 205 144 130 181 146 287 297 321 265 271 261 254 298 337 304 14 289 41 42 338 94 91 88 70 63
239 239 237 235 232 229 225 207 206 195 201 228 275 294 260 212 173 195 210 153 160 171 181 199 238 263 311 283 272 292 1 7 11 217 353 322 339 330 300 91 83 88 100 75
238 241 239 231 223 217 190 236 207 197 196 222 252 287 282 312 175 182 188 191 188 167 161 214 239 267 272 301 296 178 111 129 122 340 294 53 60 48 31 80 85 74 85 93
236 231 228 220 209 189 179 224 260 183 150 160 236 270 256 269 167 181 131 139 168 144 178 234 222 253 3 260 256 352 56 77 64 24 75 60 32 43 37 53 73 77 70 68
224 212 212 205 195 176 205 247 195 138 104 195 233 260 341 214 136 205 156 138 136 180 184 188 219 285 186 242 313 32 24 57 57 65 58 57 54 45 40 39 21 73 89 91
207 196 181 150 130 174 196 137 146 141 175 191 216 192 235 97 86 58 102 112 160 168 199 212 151 232 231 50 69 51 32 34 5 47 45 39 37 25 19 29 29 3 100 81
168 127 112 173 198 145 108 142 157 171 228 243 219 190 241 148 161 200 171 141 183 213 208 152 211 169 75 54 48 38 31 28 22 25 18 15 18 9 4 21 28 27 68 80
87 135 128 121 147 96 154 172 168 165 215 212 224 190 166 178 157 204 195 169 169 207 191 195 193 129 71 49 48 36 26 29 37 38 44 36 34 8 352 6 19 31 51 74
138 106 96 104 126 152 175 185 161 196 217 200 185 200 181 153 122 206 183 180 159 237 143 157 136 71 52 43 40 35 25 24 29 34 28 26 29 10 12 19 21 36 61 74
117 83 116 141 138 163 180 184 180 214 232 197 158 93 145 127 108 201 219 237 210 141 74 71 58 81 59 42 31 25 20 36 52 46 30 34 39 32 23 18 14 50 63 70
101 146 133 191 175 231 182 123 89 44 325 350 105 79 108 130 102 194 198 244 58 28 102 96 76 64 47 59 37 34 17 27 56 41 38 38 33 32 26 18 21 50 70 70
75 66 92 96 183 58 352 9 82 3 301 328 80 59 98 134 126 181 248 308 72 43 82 79 72 52 50 57 36 34 33 34 37 23 43 43 41 41 31 26 36 54 64 73
66 38 52 23 70 12 16 14 28 6 327 291 24 110 136 173 140 82 23 47 65 96 68 79 90 52 34 42 32 50 63 72 68 54 63 59 52 51 43 45 46 48 60 65
54 24 4 20 67 42 17 2 338 309 283 67 59 78 54 10 67 63 29 99 99 107 100 75 81 87 29 67 36 38 73 87 83 89 85 79 67 62 61 59 40 61 66 75